Weather History for EGJA - February, 2013

Change the Weather History Date:

Friday, February 1, 2013

  Actual Average (EGJB) Record (EGJB)
Temperature  
Mean Temperature 46 °F -  
Max Temperature 50 °F 44 °F - (-1)
Min Temperature 42 °F 40 °F - (-1)
Degree Days  
Heating Degree Days 19    
Moisture  
Dew Point 43 °F    
Average Humidity 90    
Maximum Humidity 100    
Minimum Humidity 76    
Precipitation  
Precipitation 0.00 in - - ()
Sea Level Pressure  
Sea Level Pressure 29.58 in    
Wind  
Wind Speed 14 mph ()    
Max Wind Speed 25 mph    
Max Gust Speed 32 mph    
Visibility 4.7 miles    
Events Rain    
Averages and records for this station are not official NWS values.
T = Trace of Precipitation, MM = Missing Value Source: Averaged Metar Reports

Daily Weather History Graph

Daily Weather History Graph

Search for Another Location

Airport or City:

Trip Planner

Search our weather history database for the weather conditions in past years. The results will help you decide how hot, cold, wet, or windy it might be!

Date:

Astronomy

Feb. 01, 2013 Rise Set
Actual Time 7:41 AM GMT 5:04 PM GMT
Civil Twilight 7:06 AM GMT 5:38 PM GMT
Nautical Twilight 6:28 AM GMT 6:17 PM GMT
Astronomical Twilight 5:50 AM GMT 6:55 PM GMT
Moon 11:36 PM GMT (2/1) 9:29 AM GMT (2/1)
Length of Visible Light 10h 32m
Length of Day
9h 22m
Waning Gibbous, 72% of the Moon is Illuminated
Feb 1
Waning Gibbous
Feb 3
Last Quarter
Feb 10
New
Feb 17
First Quarter
Feb 25
Full

Hourly Weather History & Observations

Time (GMT) Temp. Windchill Dew Point Humidity Pressure Visibility Wind Dir Wind Speed Gust Speed Precip Events Conditions
6:50 AM 46.4 °F 40.7 °F 46.4 °F 100% 29.65 in 0.7 mi South 12.7 mph - N/A Rain Rain
7:20 AM 46.4 °F 40.1 °F 46.4 °F 100% 29.65 in 0.7 mi South 15.0 mph - N/A Rain Heavy Rain
7:50 AM 46.4 °F 40.1 °F 46.4 °F 100% 29.62 in 0.7 mi SSW 15.0 mph - N/A Rain Rain
8:20 AM 46.4 °F 41.1 °F 46.4 °F 100% 29.59 in 2.5 mi SW 11.5 mph - N/A Rain Rain
8:50 AM 48.2 °F - 48.2 °F 100% 29.59 in 3.7 mi WSW 16.1 mph - N/A Rain Rain
9:20 AM 48.2 °F - 48.2 °F 100% 29.56 in 2.5 mi WSW 13.8 mph 28.8 mph N/A Rain Light Rain
9:50 AM 50.0 °F - 50.0 °F 100% 29.56 in 1.2 mi SW 17.3 mph - N/A Rain Rain
10:20 AM 48.2 °F - 48.2 °F 100% 29.56 in 2.5 mi NNW 25.3 mph - N/A Rain Heavy Rain
10:50 AM 44.6 °F 36.9 °F 44.6 °F 100% 29.56 in 6.2 mi North 18.4 mph 32.2 mph N/A Rain Rain
11:20 AM 44.6 °F 38.1 °F 44.6 °F 100% 29.56 in 6.2 mi NNW 13.8 mph - N/A Rain Light Rain
11:50 AM 44.6 °F 36.4 °F 44.6 °F 100% 29.56 in 6.2 mi NNW 20.7 mph - N/A   Mostly Cloudy
12:20 PM 42.8 °F 34.5 °F 42.8 °F 100% 29.59 in 6.2 mi NNW 18.4 mph - N/A   Scattered Clouds
12:50 PM 44.6 °F 37.2 °F 42.8 °F 93% 29.59 in 6.2 mi NNW 17.3 mph - N/A   Mostly Cloudy
1:20 PM 44.6 °F 36.6 °F 41.0 °F 87% 29.56 in 6.2 mi NW 19.6 mph - N/A   Mostly Cloudy
1:50 PM 44.6 °F 36.6 °F 39.2 °F 81% 29.56 in 6.2 mi NW 19.6 mph - N/A   Mostly Cloudy
2:20 PM 44.6 °F 36.9 °F 39.2 °F 81% 29.56 in 6.2 mi NW 18.4 mph - N/A   Mostly Cloudy
2:50 PM 44.6 °F 37.4 °F 39.2 °F 81% 29.56 in 6.2 mi NNW 16.1 mph - N/A   Mostly Cloudy
3:20 PM 44.6 °F 37.8 °F 39.2 °F 81% 29.56 in 6.2 mi NW 15.0 mph - N/A   Scattered Clouds
3:50 PM 44.6 °F 38.4 °F 37.4 °F 76% 29.56 in 6.2 mi NW 12.7 mph - N/A   Scattered Clouds
4:20 PM 44.6 °F 39.2 °F 37.4 °F 76% 29.56 in 6.2 mi NW 10.4 mph - N/A   Scattered Clouds
4:50 PM 44.6 °F 38.1 °F 37.4 °F 76% 29.56 in 6.2 mi WNW 13.8 mph - N/A   Scattered Clouds
5:20 PM 44.6 °F 37.8 °F 37.4 °F 76% 29.56 in 6.2 mi NW 15.0 mph - N/A   Scattered Clouds
5:50 PM 44.6 °F 36.9 °F 37.4 °F 76% 29.56 in 6.2 mi WNW 18.4 mph - N/A   Scattered Clouds
6:20 PM 44.6 °F 37.2 °F 37.4 °F 76% 29.56 in 6.2 mi WNW 17.3 mph - N/A   Scattered Clouds